Simultaneous Nadir Overpasses (SNOs) Predictions

Prediction of SNOs between FY3D and AQUA Satellite Orbit:

Table of predicted SNOs for the next 14.0 days since TLE Epoch: 10/11/2025
Index Date (FY3D) Time (FY3D) Lat,Lon (FY3D) SZA (FY3D ) Date (AQUA) Time (AQUA) Lat,Lon (AQUA) SZA (AQUA ) Distance(km) Time Diff (sec)
1 10/12/2025 00:22:48 79.60, 164.99 87.01 10/12/2025 00:23:57 79.60, 165.04 87.00 1.07 69
2 10/12/2025 01:13:24 -79.33, -25.27 93.29 10/12/2025 01:13:07 -79.33, -25.34 93.28 1.59 17
3 10/14/2025 09:53:25 79.53, 23.02 87.83 10/14/2025 09:54:16 79.54, 22.97 87.83 1.01 51
4 10/14/2025 10:44:04 -79.35,-168.05 92.37 10/14/2025 10:43:28 -79.34,-167.93 92.38 2.71 36
5 10/16/2025 19:24:02 79.47,-119.00 88.63 10/16/2025 19:24:34 79.48,-119.10 88.64 2.21 32
6 10/16/2025 20:14:41 -79.28, 49.93 91.57 10/16/2025 20:13:46 -79.28, 49.99 91.57 1.44 55
7 10/19/2025 04:54:38 79.41, 98.94 89.43 10/19/2025 04:54:50 79.42, 98.83 89.44 2.56 12
8 10/19/2025 05:44:39 -77.83, -83.17 92.08 10/19/2025 05:43:25 -77.68, -83.78 92.25 22.07 74
9 10/21/2025 13:36:33 -80.97, 107.09 85.58 10/21/2025 13:37:46 -81.64, 106.79 85.10 74.86 73
10 10/21/2025 14:25:15 79.35, -43.15 90.23 10/21/2025 14:25:06 79.36, -43.25 90.23 2.06 9
11 10/23/2025 23:05:15 -79.52, 5.40 88.76 10/23/2025 23:06:10 -79.53, 5.35 88.76 1.08 55



Historial Predications of SNOs between FY3D and AQUA
